GW5357 Weather Reports


Display with metric or nautical units.
time (UTC)temp
F
wind
direction
speed
MPH
gust
MPH
rain 1hr
in
rain 24hr
in
rain mn
in
humidity
%
barometer
mb
20260901011504 70 283 3.0 6.0 0.00 0.00 0.00 59 1009.2
20260901011004 70 344 3.0 5.0 0.00 0.00 0.00 60 1009.3
20260901010007 70 46 1.0 5.0 0.00 0.00 0.00 61 1009.1
20260901005004 70 135 3.0 8.0 0.00 0.00 0.00 60 1009.2
20260901004004 71 1 3.0 5.0 0.00 0.00 0.00 59 1009.2
20260901003503 71 340 3.0 7.0 0.00 0.00 0.00 58 1009.3
20260901003005 72 292 3.0 8.0 0.00 0.00 0.00 57 1009.3
20260901002504 72 337 3.0 7.0 0.00 0.00 0.00 57 1009.3
20260901001504 73 23 3.0 7.0 0.00 0.00 0.00 56 1009.4
20260901000008 73 279 4.0 8.0 0.00 0.00 0.00 55 1009.6
20260831235005 74 314 4.0 10.0 0.00 0.00 0.00 56 1009.7
20260831234007 74 348 5.0 11.0 0.00 0.00 0.00 55 1009.8
20260831233504 74 1 3.0 7.0 0.00 0.00 0.00 57 1009.8
20260831233005 73 269 2.0 11.0 0.00 0.00 0.00 58 1009.9
20260831232504 73 347 6.0 11.0 0.00 0.00 0.00 57 1009.9
20260831232003 74 328 4.0 8.0 0.00 0.00 0.00 57 1010.0
20260831231505 74 331 2.0 8.0 0.00 0.00 0.00 57 1009.9
20260831230504 75 284 4.0 12.0 0.00 0.00 0.00 57 1010.1
20260831230005 74 338 3.0 7.0 0.00 0.00 0.00 58 1010.2
20260831225504 74 234 3.0 8.0 0.00 0.00 0.00 59 1010.1
20260831225004 73 269 2.0 8.0 0.00 0.00 0.00 60 1010.2
20260831224505 73 259 3.0 11.0 0.00 0.00 0.00 60 1010.4
20260831224003 73 314 5.0 11.0 0.00 0.00 0.00 60 1010.4
20260831223504 73 322 4.0 10.0 0.00 0.00 0.00 61 1010.4
20260831222505 73 286 3.0 9.0 0.00 0.00 0.00 61 1010.6
20260831221505 73 324 4.0 8.0 0.00 0.00 0.00 60 1010.7
20260831220005 74 314 5.0 10.0 0.00 0.00 0.00 61 1010.9
20260831215504 73 244 3.0 10.0 0.00 0.00 0.00 61 1010.9
20260831215003 73 286 3.0 11.0 0.00 0.00 0.00 63 1011.0
20260831214505 73 290 5.0 11.0 0.00 0.00 0.00 62 1011.1
20260831213504 72 252 4.0 10.0 0.00 0.00 0.00 65 1011.1
20260831212505 72 275 3.0 10.0 0.00 0.00 0.00 63 1011.3
20260831212006 72 311 3.0 10.0 0.00 0.00 0.00 64 1011.3
20260831211503 72 290 3.0 8.0 0.00 0.00 0.00 63 1011.4
20260831211003 72 1 5.0 8.0 0.00 0.00 0.00 62 1011.5
20260831210504 73 274 3.0 9.0 0.00 0.00 0.00 61 1011.5
20260831210006 73 28 3.0 9.0 0.00 0.00 0.00 61 1011.5
20260831205503 73 35 3.0 8.0 0.00 0.00 0.00 61 1011.7
20260831205004 73 335 3.0 9.0 0.00 0.00 0.00 60 1011.7
20260831204504 73 303 4.0 9.0 0.00 0.00 0.00 58 1011.7
20260831204005 74 274 3.0 8.0 0.00 0.00 0.00 56 1011.7
20260831203503 74 223 4.0 6.0 0.00 0.00 0.00 52 1011.9
20260831203004 75 1 2.0 4.0 0.00 0.00 0.00 53 1012.0
20260831202504 75 335 2.0 4.0 0.00 0.00 0.00 52 1012.0
20260831202004 74 223 2.0 4.0 0.00 0.00 0.00 54 1012.2
20260831201504 73 40 2.0 5.0 0.00 0.00 0.00 54 1012.1
20260831201004 73 28 2.0 5.0 0.00 0.00 0.00 55 1012.2
20260831200503 73 18 2.0 6.0 0.00 0.00 0.00 54 1012.4
20260831200007 73 8 3.0 6.0 0.00 0.00 0.00 53 1012.4
20260831195504 73 46 2.0 5.0 0.00 0.00 0.00 55 1012.5
20260831195004 73 1 3.0 5.0 0.00 0.00 0.00 54 1012.5
20260831194504 73 20 2.0 5.0 0.00 0.00 0.00 56 1012.6
20260831194003 73 35 2.0 7.0 0.00 0.00 0.00 55 1012.7
20260831193504 72 1 2.0 7.0 0.00 0.00 0.00 56 1012.8
20260831193005 72 41 2.0 6.0 0.00 0.00 0.00 57 1012.8
20260831192503 72 1 2.0 7.0 0.00 0.00 0.00 57 1012.9
20260831192004 71 333 2.0 7.0 0.00 0.00 0.00 57 1012.9
20260831191504 71 1 2.0 6.0 0.00 0.00 0.00 58 1013.1
20260831191003 71 39 3.0 6.0 0.00 0.00 0.00 58 1013.1
20260831190503 70 340 2.0 4.0 0.00 0.00 0.00 60 1013.2
20260831190004 70 32 2.0 4.0 0.00 0.00 0.00 60 1013.3
20260831185503 70 42 2.0 3.0 0.00 0.00 0.00 60 1013.2
20260831185004 70 13 2.0 6.0 0.00 0.00 0.00 60 1013.3
20260831184504 70 281 3.0 6.0 0.00 0.00 0.00 61 1013.4
20260831184004 70 23 2.0 5.0 0.00 0.00 0.00 62 1013.4
20260831183503 69 331 2.0 5.0 0.00 0.00 0.00 65 1013.5
20260831182005 68 32 2.0 4.0 0.00 0.00 0.00 63 1013.7
20260831181504 68 1 1.0 4.0 0.00 0.00 0.00 65 1013.8
20260831181004 68 32 2.0 4.0 0.00 0.00 0.00 63 1013.9
20260831180006 67 1 3.0 7.0 0.00 0.00 0.00 66 1014.0
20260831175003 66 28 2.0 4.0 0.00 0.00 0.00 67 1014.1
20260831174504 66 340 2.0 5.0 0.00 0.00 0.00 67 1014.0
20260831174004 66 340 3.0 5.0 0.00 0.00 0.00 67 1014.0
20260831173006 65 324 2.0 4.0 0.00 0.00 0.00 70 1014.1
20260831172504 65 25 2.0 4.0 0.00 0.00 0.00 69 1014.1
20260831172004 65 11 2.0 4.0 0.00 0.00 0.00 70 1014.1
20260831171504 64 1 2.0 4.0 0.00 0.00 0.00 72 1014.2
20260831171003 64 340 1.0 4.0 0.00 0.00 0.00 73 1014.2
20260831170008 62 303 1.0 4.0 0.00 0.00 0.00 75 1014.1
20260831165004 62 283 1.0 3.0 0.00 0.00 0.00 79 1014.2
20260831164504 61 178 1.0 3.0 0.00 0.00 0.00 79 1014.2
20260831164003 60 331 2.0 3.0 0.00 0.00 0.00 79 1014.2
20260831163504 60 351 2.0 3.0 0.00 0.00 0.00 79 1014.4
20260831163004 60 350 2.0 3.0 0.00 0.00 0.00 81 1014.3
20260831162503 59 79 2.0 3.0 0.00 0.00 0.00 83 1014.3
20260831162004 58 1 1.0 2.0 0.00 0.00 0.00 84 1014.3
20260831161504 57 1 1.0 3.0 0.00 0.00 0.00 86 1014.3
20260831161004 57 15 1.0 2.0 0.00 0.00 0.00 86 1014.3
20260831160503 56 340 1.0 2.0 0.00 0.00 0.00 88 1014.4
20260831160007 56 23 1.0 2.0 0.00 0.00 0.00 89 1014.4
20260831155504 55 178 1.0 2.0 0.00 0.00 0.00 90 1014.5
20260831154004 54 46 1.0 2.0 0.00 0.00 0.00 92 1014.7
20260831153503 54 46 1.0 2.0 0.00 0.00 0.00 92 1014.6
20260831153005 53 303 1.0 2.0 0.00 0.00 0.00 93 1014.7
20260831152504 53 324 1.0 2.0 0.00 0.00 0.00 93 1014.8
20260831152004 53 269 1.0 2.0 0.00 0.00 0.00 93 1014.8
20260831151503 53 269 1.0 2.0 0.00 0.00 0.00 94 1014.8
20260831151003 53 286 1.0 2.0 0.00 0.00 0.00 94 1014.8
20260831150504 52 314 1.0 2.0 0.00 0.00 0.00 94 1014.8
20260831145005 51 340 1.0 2.0 0.00 0.00 0.00 95 1014.8
20260831144503 51 269 1.0 1.0 0.00 0.00 0.00 95 1014.7
20260831143503 50 1 1.0 2.0 0.00 0.00 0.00 94 1014.8
20260831143004 50 336 1.0 2.0 0.00 0.00 0.00 94 1014.8
20260831142004 50 340 0.0 2.0 0.00 0.00 0.00 94 1014.6
20260831141506 50 331 1.0 2.0 0.00 0.00 0.00 94 1014.5
20260831141004 50 46 1.0 2.0 0.00 0.00 0.00 94 1014.7
20260831140003 49 347 1.0 2.0 0.00 0.00 0.00 94 1014.7
20260831135503 49 340 1.0 2.0 0.00 0.00 0.00 94 1014.7
20260831135003 49 321 2.0 3.0 0.00 0.00 0.00 94 1014.6
20260831134503 49 347 1.0 3.0 0.00 0.00 0.00 94 1014.7
20260831134003 49 340 2.0 2.0 0.00 0.00 0.00 93 1014.6
20260831133503 48 314 1.0 2.0 0.00 0.00 0.00 93 1014.6
20260831133005 49 314 0.0 1.0 0.00 0.00 0.00 93 1014.7
20260831132504 49 314 0.0 1.0 0.00 0.00 0.00 93 1014.9
20260831132003 49 340 1.0 1.0 0.00 0.00 0.00 93 1014.7
20260831131504 49 1 1.0 2.0 0.00 0.00 0.00 93 1014.8
20260831131004 49 314 1.0 2.0 0.00 0.00 0.00 93 1014.8
20260831130503 49 1 1.0 2.0 0.00 0.00 0.00 93 1014.8
20260831130004 49 331 0.0 1.0 0.00 0.00 0.00 93 1014.9
20260831125003 49 314 1.0 2.0 0.00 0.00 0.00 93 1014.9
20260831124503 50 331 1.0 2.0 0.00 0.00 0.00 93 1014.9
20260831124004 50 314 1.0 2.0 0.00 0.00 0.00 93 1015.0
20260831123502 50 89 0.0 2.0 0.00 0.00 0.00 93 1015.1
20260831123004 50 303 1.0 2.0 0.00 0.00 0.00 93 1015.2
20260831122504 50 295 0.0 2.0 0.00 0.00 0.00 93 1015.1
20260831122003 50 331 1.0 2.0 0.00 0.00 0.00 92 1015.1
20260831121504 50 340 1.0 2.0 0.00 0.00 0.00 92 1015.1
20260831121004 50 46 0.0 1.0 0.00 0.00 0.00 93 1015.0
20260831120503 50 331 0.0 2.0 0.00 0.00 0.00 93 1015.2
20260831120005 50 89 1.0 2.0 0.00 0.00 0.00 93 1015.2
20260831115003 50 314 1.0 2.0 0.00 0.00 0.00 93 1015.3
20260831114503 50 327 1.0 2.0 0.00 0.00 0.00 92 1015.2
20260831114004 50 331 1.0 3.0 0.00 0.00 0.00 93 1015.3
20260831113502 50 340 2.0 3.0 0.00 0.00 0.00 92 1015.4
20260831113004 50 336 1.0 2.0 0.00 0.00 0.00 92 1015.4
20260831112003 50 331 0.0 1.0 0.00 0.00 0.00 91 1015.5
20260831111003 50 296 0.0 2.0 0.00 0.00 0.00 91 1015.6
20260831110503 50 314 1.0 2.0 0.00 0.00 0.00 91 1015.5
20260831110004 50 321 1.0 2.0 0.00 0.00 0.00 91 1015.6
20260831105503 50 335 1.0 2.0 0.00 0.00 0.00 91 1015.7
20260831105004 50 135 0.0 2.0 0.00 0.00 0.00 91 1015.7
20260831104003 51 314 1.0 2.0 0.00 0.00 0.00 91 1015.6
20260831103503 51 321 1.0 2.0 0.00 0.00 0.00 91 1015.7
20260831103004 51 324 2.0 2.0 0.00 0.00 0.00 91 1015.8
20260831102003 51 336 1.0 3.0 0.00 0.00 0.00 91 1015.8
20260831101503 51 336 1.0 2.0 0.00 0.00 0.00 91 1015.9
20260831100007 51 336 1.0 2.0 0.00 0.00 0.00 91 1016.0
20260831095503 51 331 1.0 2.0 0.00 0.00 0.00 91 1016.0
20260831095003 51 331 1.0 2.0 0.00 0.00 0.00 91 1016.1
20260831094504 51 1 0.0 1.0 0.00 0.00 0.00 90 1016.2
20260831094005 51 1 1.0 1.0 0.00 0.00 0.00 91 1016.1
20260831093501 51 340 1.0 1.0 0.00 0.00 0.00 90 1016.2
20260831093004 52 46 0.0 2.0 0.00 0.00 0.00 90 1016.3
20260831092504 52 331 1.0 2.0 0.00 0.00 0.00 91 1016.4
20260831092004 52 314 1.0 2.0 0.00 0.00 0.00 91 1016.5
20260831091505 52 331 1.0 2.0 0.00 0.00 0.00 91 1016.7
20260831091004 52 344 1.0 2.0 0.00 0.00 0.00 91 1016.7
20260831090006 52 314 1.0 2.0 0.00 0.00 0.00 91 1016.8
20260831085503 52 340 1.0 2.0 0.00 0.00 0.00 91 1016.8
20260831084003 51 331 1.0 2.0 0.00 0.00 0.00 91 1016.9
20260831083503 51 331 1.0 1.0 0.00 0.00 0.00 91 1016.9
20260831083004 51 269 0.0 1.0 0.00 0.00 0.00 90 1016.9
20260831082003 52 314 1.0 2.0 0.00 0.00 0.00 90 1017.0
20260831081004 52 314 0.0 1.0 0.00 0.00 0.00 90 1017.1
20260831075000 53 269 0.0 2.0 0.00 0.00 0.00 89 1017.1
20260831074504 53 46 0.0 2.0 0.00 0.00 0.00 89 1017.3
20260831073501 53 331 1.0 2.0 0.00 0.00 0.00 90 1017.4
20260831073000 53 327 1.0 2.0 0.00 0.00 0.00 89 1017.6
20260831072459 53 269 1.0 2.0 0.00 0.00 0.00 89 1017.6
20260831072000 53 347 1.0 2.0 0.00 0.00 0.00 89 1017.6
20260831071500 53 314 1.0 2.0 0.00 0.00 0.00 89 1017.5
20260831071000 53 223 0.0 2.0 0.00 0.00 0.00 88 1017.5
20260831070459 53 340 1.0 2.0 0.00 0.00 0.00 88 1017.5
20260831070012 53 340 1.0 2.0 0.00 0.00 0.00 88 1017.5
20260831065503 53 321 1.0 2.0 0.00 0.00 0.00 88 1017.5
20260831065005 53 314 1.0 2.0 0.00 0.00 0.00 87 1017.5
20260831064504 54 331 0.0 2.0 0.00 0.00 0.00 87 1017.5
20260831064006 54 269 1.0 2.0 0.00 0.00 0.00 87 1017.6
20260831063504 54 340 2.0 2.0 0.00 0.00 0.00 87 1017.6
20260831063007 54 314 1.0 2.0 0.00 0.00 0.00 87 1017.7
20260831062503 54 331 1.0 2.0 0.00 0.00 0.00 87 1017.7
20260831062005 54 324 1.0 2.0 0.00 0.00 0.00 87 1017.7
20260831061504 54 344 1.0 2.0 0.00 0.00 0.00 87 1017.8
20260831060504 55 324 1.0 2.0 0.00 0.00 0.00 86 1018.0
20260831060007 55 1 1.0 2.0 0.00 0.00 0.00 86 1017.9
20260831055504 55 1 0.0 2.0 0.00 0.00 0.00 86 1018.0
20260831055004 55 46 1.0 2.0 0.00 0.00 0.00 86 1017.9
20260831054505 55 324 1.0 2.0 0.00 0.00 0.00 85 1018.0
20260831054006 55 324 1.0 2.0 0.00 0.00 0.00 85 1018.0
20260831053504 55 324 0.0 2.0 0.00 0.00 0.00 85 1018.1
20260831053004 56 340 1.0 2.0 0.00 0.00 0.00 85 1018.1
20260831052005 56 324 1.0 2.0 0.00 0.00 0.00 84 1018.2
20260831051504 56 331 1.0 2.0 0.00 0.00 0.00 84 1018.1
20260831050504 57 1 1.0 2.0 0.00 0.00 0.00 84 1018.2
20260831050006 57 331 1.0 2.0 0.00 0.00 0.00 84 1018.3
20260831045504 57 314 1.0 2.0 0.00 0.00 0.00 84 1018.3
20260831045005 57 324 2.0 2.0 0.00 0.00 0.00 83 1018.3
20260831044504 57 336 1.0 2.0 0.00 0.00 0.00 83 1018.3
20260831044004 57 336 1.0 2.0 0.00 0.00 0.00 83 1018.4
20260831043005 58 331 1.0 2.0 0.00 0.00 0.00 81 1018.5
20260831042504 58 314 1.0 2.0 0.00 0.00 0.00 80 1018.5
20260831042004 58 314 1.0 2.0 0.00 0.00 0.00 80 1018.5
20260831041505 58 1 1.0 2.0 0.00 0.00 0.00 80 1018.6
20260831041004 59 331 1.0 2.0 0.00 0.00 0.00 79 1018.6
20260831040504 59 340 1.0 2.0 0.00 0.00 0.00 79 1018.5
20260831040007 59 331 1.0 2.0 0.00 0.00 0.00 78 1018.6
20260831035505 60 331 1.0 2.0 0.00 0.00 0.00 78 1018.6
20260831035005 60 340 1.0 2.0 0.00 0.00 0.00 77 1018.6
20260831034504 60 324 1.0 2.0 0.00 0.00 0.00 76 1018.4
20260831034005 60 324 1.0 2.0 0.00 0.00 0.00 75 1018.4
20260831033503 61 321 1.0 2.0 0.00 0.00 0.00 75 1018.4
20260831033004 61 327 1.0 2.0 0.00 0.00 0.00 74 1018.4
20260831032505 61 331 1.0 2.0 0.00 0.00 0.00 73 1018.4
20260831032004 62 314 1.0 1.0 0.00 0.00 0.00 73 1018.4
20260831031503 62 1 1.0 2.0 0.00 0.00 0.00 72 1018.4
20260831031004 62 1 1.0 2.0 0.00 0.00 0.00 71 1018.4
20260831030504 63 331 1.0 1.0 0.00 0.00 0.00 70 1018.3
20260831030006 63 28 0.0 1.0 0.00 0.00 0.00 69 1018.4
20260831025505 63 46 0.0 2.0 0.00 0.00 0.00 68 1018.4
20260831025004 63 89 0.0 2.0 0.00 0.00 0.00 67 1018.5
20260831024504 64 46 0.0 2.0 0.00 0.00 0.00 67 1018.5
20260831024004 64 193 1.0 2.0 0.00 0.00 0.00 67 1018.5
20260831023504 64 314 0.0 3.0 0.00 0.00 0.00 67 1018.5
20260831023007 64 145 1.0 3.0 0.00 0.00 0.00 67 1018.4
20260831022505 64 124 1.0 3.0 0.00 0.00 0.00 67 1018.5
20260831022005 64 314 1.0 3.0 0.00 0.00 0.00 67 1018.6
20260831021506 64 241 1.0 3.0 0.00 0.00 0.00 67 1018.6
20260831020504 64 223 2.0 3.0 0.00 0.00 0.00 66 1018.6
20260831015504 64 286 1.0 3.0 0.00 0.00 0.00 65 1018.7
20260831014504 65 117 2.0 4.0 0.00 0.00 0.00 64 1018.8
20260831014003 65 324 1.0 4.0 0.00 0.00 0.00 64 1018.8
20260831013504 65 206 2.0 4.0 0.00 0.00 0.00 64 1018.9
20260831013004 65 314 2.0 3.0 0.00 0.00 0.00 64 1018.9
20260831012504 65 296 1.0 3.0 0.00 0.00 0.00 64 1018.9